www.pogodaiklimat.ru
ПОГОДА в Ольштыне
Время
(UTC), дата
13 13.04
14 13.04
15 13.04
16 13.04
17 13.04
18 13.04
19 13.04
20 13.04
21 13.04
22 13.04
23 13.04
00 14.04
01 14.04
02 14.04
03 14.04
04 14.04
05 14.04
06 14.04
07 14.04
08 14.04
09 14.04
10 14.04
11 14.04
12 14.04
13 14.04
14 14.04
15 14.04
16 14.04
17 14.04
18 14.04
19 14.04
20 14.04
21 14.04
22 14.04
23 14.04
00 15.04
01 15.04
02 15.04
03 15.04
04 15.04
05 15.04
06 15.04
07 15.04
08 15.04
09 15.04
10 15.04
11 15.04
12 15.04
13 15.04
14 15.04
15 15.04
16 15.04
17 15.04
18 15.04
19 15.04
20 15.04
21 15.04
22 15.04
23 15.04
00 16.04
01 16.04
02 16.04
03 16.04
04 16.04
05 16.04
06 16.04
07 16.04
08 16.04
09 16.04
10 16.04
11 16.04
12 16.04
13 16.04
14 16.04
15 16.04
16 16.04
17 16.04
18 16.04
19 16.04
20 16.04
21 16.04
22 16.04
23 16.04
00 17.04
01 17.04
02 17.04
03 17.04
04 17.04
05 17.04
06 17.04
07 17.04
08 17.04
09 17.04
10 17.04
11 17.04
12 17.04
13 17.04
14 17.04
15 17.04
16 17.04
17 17.04
18 17.04
19 17.04
20 17.04
21 17.04
22 17.04
23 17.04
00 18.04
01 18.04
02 18.04
03 18.04
04 18.04
05 18.04
06 18.04
07 18.04
08 18.04
09 18.04
10 18.04
11 18.04
12 18.04
13 18.04
14 18.04
15 18.04
16 18.04
17 18.04
18 18.04
19 18.04
20 18.04
21 18.04
22 18.04
23 18.04
00 19.04
01 19.04
02 19.04
03 19.04
04 19.04
05 19.04
06 19.04
07 19.04
08 19.04
09 19.04
10 19.04
11 19.04
12 19.04
13 19.04
14 19.04
15 19.04
16 19.04
17 19.04
18 19.04
19 19.04
20 19.04
21 19.04
22 19.04
23 19.04
00 20.04
01 20.04
02 20.04
03 20.04
04 20.04
05 20.04
06 20.04
07 20.04
08 20.04
09 20.04
10 20.04
11 20.04
12 20.04
Ветер
(напр.,м/с)
Видим. Явления Облачность Т
(С)
Тd
(С)
f
(%)
Тe
(С)
Тes
(С)
Комфортность P
(гПа)
Po
(гПа)
Тmin
(С)
Tmax
(С)
R
(мм)
R24
(мм)
S
(см)
С 3 40 км 10/4 1000 м
[Cu hum Ac As]
+6.7 -2.7 51 +4 +6 1024.6 1007.6
С 4 50 км 9/4 1000 м
[Cu hum Ac As]
+7.2 -4.0 45 +4 +5 1024.3 1007.4
С 4 45 км 9/3 1000 м
[Cu hum Ac As]
+7.3 -3.6 46 +4 +5 1024.2 1007.3
С 3 50 км 8/1 1000 м
[Cu hum Ac trans Ci sp]
+6.7 -2.7 51 +4 +5 1024.2 1007.2
С 3 50 км 8/0
[Ac trans Ci sp]
+6.3 -2.1 55 +4 +4 1023.9 1006.9
СЗ 2 50 км 5/0
[Ac trans]
+4.1 -2.3 63 +2 +2 1024.2 1007.1 +4.1 +7.6
СЗ 2 45 км н/о +4.0 -1.2 69 +1 +1 1024.4 1007.3
С 3 45 км н/о +3.6 -0.6 74 0 0 1024.4 1007.2
С 2 50 км н/о +2.6 -1.9 72 -0 -0 1024.4 1007.2
СЗ 2 50 км н/о +2.3 -1.5 76 -1 -1 1024.3 1007.1
СЗ 2 40 км н/о +1.9 -1.0 81 -1 -1 1024.0 1006.7
З 1 35 км н/о +1.9 -0.7 83 0 0 1023.8 1006.5
З 1 30 км н/о +1.5 -0.7 85 -0 -0 1023.3 1006.0
СЗ 1 28 км н/о +1.2 -0.7 87 -1 -1 1023.2 1005.9
З 1 24 км н/о +1.1 -0.7 88 -1 -1 1022.9 1005.6
З 1 18 км н/о +1.1 -0.5 89 -1 -1 1022.8 1005.5
СЗ 1 18 км н/о +1.5 0.0 90 -0 -0 1023.2 1005.9
СЗ 2 25 км 10/0
[Ac As]
+2.6 +0.5 86 -1 0 1022.9 1005.7 +1.0 +4.1
СЗ 3 20 км 10/4 600 м
[Sc As op]
+3.8 +1.3 84 0 +1 1022.8 1005.7
С 4 20 км 10/6 300 м
[Sc As op]
+4.7 +0.8 76 +1 +1 1022.9 1005.8
СЗ 4 25 км 10/8 600 м
[Sc As op]
+5.4 +0.8 72 +2 +2 1022.6 1005.6
С 4 30 км 10/6 600 м
[Sc As op]
+6.5 +0.4 65 +3 +4 1022.2 1005.3
СЗ 5 30 км 10/8 600 м
[Sc As op]
+7.2 -0.1 60 +4 +4 1021.7 1004.8
СЗ 6 35 км 10/8 1000 м
[Sc As op]
+7.3 -0.2 59 +3 +4 1021.4 1004.5
С 6 15 км слаб. дождь 10/8 600 м
[Sc As op]
+6.0 +1.1 71 +1 +2 1021.5 1004.5
СЗ 6
{11}
35 км в посл. час дождь 10/8 600 м
[Sc As op]
+6.5 +1.4 70 +2 +2 1021.3 1004.4
С 5-10
{12}
40 км {дождь} 10/6 1000 м
[Sc As op]
+6.6 +0.5 65 +3 +3 1021.2 1004.3
С 5
{12}
50 км 10/6 1000 м
[Sc As op]
+6.1 -1.1 60 +2 +2 1021.5 1004.5
С 4
{10}
50 км 10/8 600 м
[Sc As op]
+5.3 -0.3 67 +2 +2 1021.7 1004.7
С 6
{12}
50 км слаб. дождь 10/10 600 м
[Sc]
+4.6 -0.6 69 -0 -0 1022.0 1004.9 +2.6 +7.5 0.0
СЗ 5 30 км слаб. ливневой дождь н/о +4.0 0.0 75 -1 -1 1022.1 1005.0
СЗ 5 23 км морось н/о +3.0 +1.4 89 -2 -2 1022.1 1004.9
СЗ 5 19 км морось н/о +3.0 +1.8 92 -2 -2 1021.8 1004.6
СЗ 5 28 км н/о +3.3 +2.1 92 -2 -2 1021.4 1004.3
СЗ 4 15 км слаб. ливневой дождь н/о +3.3 +2.0 91 -1 -1 1021.3 1004.2
С 5
{10}
8000 м слаб. дождь н/о +2.6 +1.4 92 -3 -3 1021.1 1003.9
С 5 7000 м слаб. дождь н/о +2.5 +1.6 94 -3 -3 1020.7 1003.5
С 5 6000 м слаб. дождь н/о +2.5 +1.8 95 -3 -3 1020.3 1003.1
С 5 5000 м в посл. час дождь н/о +2.9 +2.0 94 -3 -3 1020.1 1003.0
С 5 13 км в посл. час дождь н/о +3.0 +2.0 93 -2 -2 1020.0 1002.9
С 5 45 км н/о +3.1 +1.8 91 -2 -2 1020.1 1003.0
С 5 45 км слаб. дождь 10/8 330 м
[Sc As op]
+3.0 +1.7 91 -2 -2 1020.0 1002.9 +2.4 +4.7 4 4.2
С 5
{10}
6000 м слаб. дождь 10/9 240 м
[Frnb As op]
+2.6 +1.6 93 -3 -3 1020.0 1002.9
С 4 7000 м слаб. дождь 10/9 240 м
[Frnb As op]
+2.4 +1.5 94 -3 -3 1020.3 1003.1
С 4
{10}
20 км слаб. дождь 10/9 240 м
[Frnb As op]
+2.7 +1.8 94 -2 -2 1020.3 1003.2
С 4 22 км слаб. дождь 10/9 240 м
[Frnb As op]
+2.8 +1.9 94 -2 -2 1020.2 1003.1
С 3 30 км в посл. час дождь 10/10 300 м
[Sc]
+3.7 +2.5 92 -0 -0 1020.1 1003.0
С 3
{10}
30 км слаб. дождь 10/10 420 м
[Sc]
+4.2 +2.7 90 0 0 1020.2 1003.1 3
С 4 23 км слаб. дождь 10/10 600 м
[Sc]
+4.4 +3.1 91 0 0 1020.0 1003.0
С 4 28 км в посл. час дождь 10/10 600 м
[Sc]
+4.5 +3.5 93 0 0 1019.8 1002.8
СЗ 3 23 км {дождь} 10/10 600 м
[Sc]
+4.8 +3.8 93 +1 +1 1019.8 1002.8
СВ 3
{9}
27 км слаб. дождь 10/10 600 м
[Sc]
+5.8 +3.3 84 +3 +3 1019.7 1002.8
С 3 21 км слаб. дождь 10/10 600 м
[Sc]
+5.2 +3.4 88 +2 +2 1019.9 1002.9
С 3
{9}
14 км слаб. дождь 10/6 600 м
[Sc As op]
+5.0 +3.8 92 +1 +1 1020.1 1003.1 +2.3 +5.9 4
С 3 18 км слаб. дождь н/о +4.8 +3.6 92 +1 +1 1020.5 1003.5
СВ 4 19 км слаб. дождь н/о +5.1 +3.3 88 +1 +1 1020.4 1003.4
СВ 2 35 км слаб. дождь н/о +4.9 +3.1 88 +2 +2 1020.1 1003.1
СЗ 2 18 км морось н/о +4.6 +3.6 93 +2 +2 1019.9 1002.9
С 3 16 км слаб. дождь н/о +4.8 +3.6 92 +1 +1 1019.6 1002.6
С 3 24 км морось н/о +4.7 +3.4 91 +1 +1 1019.0 1002.0
С 3 50 км н/о +4.8 +3.1 89 +1 +1 1018.5 1001.5
С 4 50 км н/о +4.5 +3.2 91 0 0 1018.3 1001.3
С 4 35 км слаб. морось н/о +4.4 +2.7 89 0 0 1018.1 1001.1
С 5 28 км морось н/о +3.9 +2.9 93 -1 -1 1018.0 1001.0
С 4 45 км в посл. час дождь н/о +3.9 +2.9 93 -1 -1 1018.2 1001.2
С 4 50 км 9/9 200 м
[Sc]
+4.4 +3.1 91 0 0 1017.9 1000.9 +3.9 +5.1 3 6.8
С 5 45 км 9/5 600 м
[Sc Ac As]
+5.2 +3.4 88 +1 +1 1017.7 1000.8
С 4 30 км слаб. дождь 10/10 600 м
[Sc]
+5.5 +2.7 82 +2 +2 1017.9 1001.0
С 4 40 км в посл. час дождь 10/10 1000 м
[Sc]
+5.1 +3.1 87 +1 +1 1017.9 1000.9
С 4 45 км 10/10 300 м
[Cu Sc]
+6.3 +3.1 80 +3 +3 1017.5 1000.6
С 6 50 км 9/9 600 м
[Cb calv]
+7.5 +3.2 74 +3 +4 1017.0 1000.2
СЗ 5 20 км в посл. час ливневой дождь 10/10 600 м
[Cu Sc]
+7.1 +4.1 81 +3 +3 1017.0 1000.2 0.0
СЗ 3 10 км слаб. ливневой дождь 10/10 600 м
[Cb cap]
+7.1 +5.2 88 +4 +4 1016.9 1000.1
С 4 35 км слаб. ливневой дождь 10/10 600 м
[Cb cap]
+7.2 +4.8 85 +4 +4 1016.8 1000.0
С 4 45 км в посл. час ливневой дождь 10/10 600 м
[Sc]
+7.0 +4.0 81 +3 +3 1017.0 1000.2
С 3 45 км 10/10 600 м
[Sc]
+6.9 +4.2 83 +4 +4 1017.2 1000.4
СЗ 4 50 км 10/10 1000 м
[Sc]
+5.9 +4.1 88 +2 +2 1017.5 1000.6
СЗ 3 40 км {ливн. дождь} 10/10 1000 м
[Sc]
+5.6 +3.6 87 +2 +2 1018.0 1001.1 +4.3 +7.8 0.4
СЗ 2 40 км н/о +5.6 +3.4 86 +3 +3 1018.6 1001.7
СЗ 3 35 км н/о +4.5 +2.7 88 +1 +1 1018.6 1001.6
СЗ 3 35 км н/о +3.8 +2.2 89 -0 -0 1018.8 1001.7
СЗ 3 26 км н/о +4.3 +2.8 90 +1 +1 1018.7 1001.7
СЗ 2 26 км н/о +4.3 +3.0 91 +1 +1 1018.5 1001.5
СЗ 2 21 км н/о +4.3 +3.0 91 +1 +1 1018.3 1001.3
С 2 18 км н/о +4.3 +3.1 92 +1 +1 1018.4 1001.4
С 2 16 км н/о +4.3 +3.3 93 +1 +1 1018.5 1001.5
С 2 13 км н/о +3.4 +2.2 92 0 0 1018.5 1001.4
С 2 11 км н/о +3.3 +2.6 95 0 0 1018.7 1001.6
С 1 17 км н/о +4.7 +3.8 94 +3 +3 1018.9 1001.9
СВ 2 25 км 3/1 600 м
[Sc Ac trans]
+7.6 +5.2 85 +6 +8 1019.0 1002.2 +2.8 +7.7 0.4
СВ 2 25 км 5/1 300 м
[Cu hum Ac trans Ci sp]
+10.3 +6.8 79 +9 +13 1019.1 1002.4
СВ 3 30 км 8/3 300 м
[Cb cap Ac trans Ci sp]
+11.5 +6.8 73 +10 +13 1019.2 1002.6
СВ 4 35 км 8/4 600 м
[Cb cap Ac trans]
+11.5 +6.4 71 +9 +12 1019.5 1002.9
СВ 3 30 км 6/4 600 м
[Cb calv Ac trans]
+12.5 +7.0 69 +11 +16 1019.2 1002.7
СВ 2 45 км 6/6 600 м
[Cu med, cong]
+12.8 +6.2 64 +12 +17 1019.2 1002.7
В 2 50 км 6/6 600 м
[Cu med, cong]
+13.6 +5.5 58 +13 +18 1019.2 1002.7
СВ 3 50 км 6/6 600 м
[Cu med, cong]
+14.2 +6.8 61 +13 +16 1019.0 1002.6
СВ 3 45 км 5/5 600 м
[Cb calv]
+15.0 +5.5 53 +14 +17 1018.8 1002.4
СВ 6-11
{11}
12 км ливневой дождь 9/9 600 м
[Cb cap]
+13.3 +6.6 64 +11 +11 1019.2 1002.7
С 1
{8}
35 км в посл. час ливневой дождь 5/4 600 м
[Cb cap Ac cuf]
+12.8 +9.2 79 +13 +14 1019.0 1002.5
СВ 3-8
{8}
15 км гроза, ливневой дождь 9/9 360 м
[Cb cap]
+12.9 +8.6 75 +12 +12 1019.5 1003.0
штиль 0
{11}
20 км в посл. час ливневой дождь {гроза} 9/8 1000 м
[Cb calv Ci sp]
+10.6 +9.4 92 +10 +10 1019.8 1003.1 +7.5 +15.4 2
В 5-10
{10}
4000 м сильн. дождь н/о +10.6 +8.4 86 +8 +8 1020.6 1003.9
С 3 5000 м сильн. дождь н/о +9.3 +8.4 94 +7 +7 1020.8 1004.0
С 1
{10}
1500 м в посл. час дождь н/о +8.1 +7.0 93 +7 +7 1020.2 1003.4
СВ 1 5000 м в посл. час туман н/о +7.5 +7.1 97 +6 +6 1020.6 1003.7
С 1 600 м туман н/о +7.0 +6.6 97 +6 +6 1020.6 1003.7
СВ 2
{10}
100 м туман н/о +6.1 +5.7 97 +3 +3 1020.6 1003.7
СЗ 1 200 м туман н/о +6.0 +5.7 98 +5 +5 1020.4 1003.5
С 1 500 м туман н/о +5.5 +5.2 98 +4 +4 1020.5 1003.5
СЗ 1 100 м туман н/о +5.2 +4.9 98 +4 +4 1020.3 1003.3
СВ 1 600 м туман н/о +5.1 +4.8 98 +4 +4 1020.3 1003.3
СВ 1 5000 м в посл. час туман н/о +5.3 +5.0 98 +4 +4 1020.7 1003.7
С 1 6000 м дымка 9/6 1000 м
[Sc Ac trans]
+7.1 +7.0 99 +6 +7 1020.9 1004.0 +4.7 +10.8 8 9.8
ЮВ 1 7000 м в посл. час ливневой дождь 10/10 1000 м
[Sc]
+7.9 +7.8 99 +7 +7 1020.8 1004.0
В 2 8000 м слаб. ливневой дождь 10/10 1000 м
[Cb cap]
+8.6 +8.0 96 +7 +7 1021.2 1004.4
Ю 1 7000 м в посл. час ливневой дождь 9/9 1000 м
[Cb cap]
+9.4 +8.8 96 +9 +10 1021.1 1004.3
С 1 15 км 9/5 300 м
[Cu Sc Ac trans]
+11.3 +9.4 88 +11 +15 1020.8 1004.2
СЗ 2 28 км 8/1 600 м
[Cu hum Ac trans Cs]
+12.8 +7.7 71 +12 +19 1020.6 1004.1
СЗ 2 30 км {ливн. дождь} 8/1 600 м
[Cu med, cong Ac trans Cs]
+14.2 +8.6 69 +14 +20 1020.2 1003.7 0.4
З 3 35 км 9/1 1000 м
[Cu med, cong Ac trans Cs]
+14.3 +8.9 70 +13 +17 1020.0 1003.5
З 2 35 км 9/1 1000 м
[Cu med, cong Ac trans Ci sp]
+14.5 +9.3 71 +14 +17 1019.7 1003.3
З 4 40 км 9/1 1000 м
[Sc diur, vesp Ac trans]
+13.9 +9.1 73 +12 +14 1019.6 1003.1
З 4 35 км 6/0
[Ac trans]
+13.3 +9.4 77 +12 +12 1019.5 1003.0
З 4 20 км 4/0
[Ac trans]
+12.0 +9.0 82 +10 +10 1019.7 1003.1
СЗ 4 20 км 3/0
[Ac trans Ci fib]
+10.4 +8.0 85 +8 +8 1020.2 1003.5 +7.1 +14.7 0.4
СЗ 3 24 км н/о +9.8 +6.9 82 +8 +8 1020.1 1003.4
СЗ 2 20 км н/о +9.0 +6.6 85 +7 +7 1020.2 1003.4
СЗ 2 17 км н/о +7.7 +5.7 87 +6 +6 1020.1 1003.3
СЗ 2 20 км н/о +6.7 +4.5 86 +4 +4 1020.1 1003.2
С 2 23 км н/о +6.0 +4.0 87 +4 +4 1019.7 1002.8
С 2 18 км н/о +5.4 +3.9 90 +3 +3 1019.4 1002.4
С 1 15 км н/о +4.9 +3.7 92 +3 +3 1019.3 1002.3
СЗ 1 11 км н/о +4.3 +3.3 93 +3 +3 1019.3 1002.3
СЗ 1 6000 м дымка н/о +3.5 +2.8 95 +2 +2 1019.3 1002.2
штиль 0 6000 м дымка н/о +3.2 +2.6 96 +2 +2 1019.3 1002.2
С 1 11 км дымка н/о +4.7 +4.3 97 +3 +3 1019.2 1002.2
С 1 15 км 1/0
[Ac trans]
+8.1 +5.7 85 +7 +11 1019.0 1002.2 +2.8 +10.6 0.4
СВ 2 25 км 1/0
[Ac trans]
+11.7 +6.0 68 +11 +16 1018.8 1002.2
СВ 2 20 км ясно +15.0 +6.0 55 +15 +23 1018.5 1002.1
В 4 35 км ясно +17.4 +2.2 36 +17 +24 1018.1 1001.9
СВ 4
{10}
30 км 1/1 1000 м
[Cu hum]
+17.9 -0.9 28 +18 +25 1017.8 1001.6
СВ 2 40 км 3/3 1000 м
[Cu med, cong]
+18.0 -0.8 28 +19 +27 1017.6 1001.4
СЗ 1
{10}
35 км 4/4 1000 м
[Cu med, cong]
+18.7 +1.7 32 +20 +28 1017.3 1001.1
СВ 3 40 км 4/4 1000 м
[Cb calv]
+18.6 +1.1 31 +19 +23 1016.9 1000.7
В 2 40 км 5/5 1000 м
[Cb calv]
+18.1 +4.6 41 +19 +22 1016.6 1000.4
В 4
{9}
15 км слаб. ливневой дождь 8/8 600 м
[Cb cap]
+15.3 +5.8 53 +14 +15 1017.2 1000.8
В 4 15 км слаб. ливневой дождь 8/8 600 м
[Cb cap]
+15.1 +4.5 49 +14 +14 1017.3 1000.9
Ю 2 15 км в посл. час ливневой дождь 6/6 600 м
[Cb calv]
+14.7 +5.5 54 +15 +15 1017.1 1000.7
З 1
{9}
35 км {ливн. дождь} 6/6 600 м
[Sc]
+12.3 +5.9 65 +12 +12 1017.2 1000.7 +8.1 +19.1 0.3
С 1 23 км слаб. ливневой дождь н/о +11.6 +6.9 73 +12 +12 1017.6 1001.0
З 1 24 км в посл. час морось н/о +10.6 +7.3 80 +10 +10 1017.5 1000.9
штиль 0 12 км н/о +8.9 +6.2 83 +8 +8 1017.4 1000.7
СВ 1 12 км н/о +7.8 +5.8 87 +7 +7 1017.4 1000.6
В 1 10 км дымка н/о +6.8 +5.3 90 +6 +6 1017.3 1000.5
В 3 5000 м дымка н/о +7.4 +5.0 85 +5 +5 1017.0 1000.2
В 2 13 км н/о +6.7 +4.0 83 +4 +4 1016.7 999.9
В 1 7000 м дымка н/о +5.1 +3.3 88 +4 +4 1016.7 999.8
В 1 12 км н/о +5.3 +3.0 85 +4 +4 1016.8 999.9
ЮВ 1 5000 м дымка н/о +4.5 +3.2 91 +3 +3 1016.6 999.6
В 1 8000 м дымка н/о +7.3 +5.4 88 +6 +6 1016.4 999.6
ЮВ 2 20 км 5/0
[Ac trans Ci sp]
+10.8 +4.9 67 +10 +12 1016.1 999.5 +4.4 +12.3 0.0 0.3
Ю 2 20 км 5/0
[Ac trans Ci sp]
+12.7 +3.4 53 +12 +17 1015.8 999.3
ЮВ 2 20 км 5/0
[Ac trans Ci sp]
+14.5 +3.3 47 +14 +22 1015.4 999.0
ЮВ 1 20 км 8/1 1500 м
[Cu med, cong Ac trans Cs]
+15.2 +3.0 44 +16 +23 1015.0 998.7
ЮВ 2 40 км 8/4 1500 м
[Cu med, cong Cs]
+15.5 +0.5 36 +16 +22 1014.6 998.3
СВ 1 40 км 8/5 1500 м
[Cu med, cong Cs]
+16.2 -0.1 33 +17 +24 1014.1 997.8
ЮВ 2 30 км 6/4 1500 м
[Cb calv Ci sp]
+16.9 +0.9 34 +17 +24 1013.5 997.3
Местоположение метеостанции Ольштын (Польша): широта 53.77 долгота 20.42 высота над уровнем моря 137 м.
В архиве по умолчанию представлена погода в Ольштыне за последнюю неделю. Архивные данные за месяц целиком и за предыдущие месяцы, начиная с января 2011 года, Вы можете получить, выбрав интересующий диапазон дат из раскрывающегося списка и нажав кнопку "Найти!".
*Определитесь, кто Вы:
Внимание! Время в таблицах - всемирное. Для получения местного времени необходимо прибавить поправку, которая равна 1 ч.
Смотрите также архив погоды в соседних городах и на ближайших метеорологических станциях:
Партнеры нашего сайта:      
Пояснения к столбцам:
  • Ветер - указаны скорость ветра в м/с - средняя за 10 мин, порывы в срок и между сроками (в фигурных скобках) и направление, откуда дует ветер: С - северный,
  • СВ - северо-восточный, В - восточный, ЮВ - юго-восточный, Ю - южный, ЮЗ - юго-западный, З - западный, СЗ - северо-западный.
  • Видимость - горизонтальная дальность видимости в метрах или километрах. При видимости от 1 до 10 км при отсутствии осадков обычно наблюдается дымка, при ухудшении видимости до 1 км и менее - туман. В сухую погоду видимость может ухудшаться дымом, пылью или мглою.
  • Явления - указаны атмосферные явления, наблюдавшиеся в срок или в последний час перед сроком; фигурными скобками обозначены явления, наблюдавшиеся между сроками (за 1-3 часа до срока); квадратными скобками обозначены град или гололедные отложения с указанием их диаметра в мм.
  • Облачность - указаны через наклонную черту общая и нижняя облачность в баллах и высота нижней границы облаков в метрах; квадратными скобками обозначены формы облаков: Ci - перистые, Cs - перисто-слоистые, Cc - перисто-кучевые, Ac - высококучевые, As - высокослоистые, Sc - слоисто-кучевые, Ns - слоисто-дождевые, Cu - кучевые, Cb - кучево-дождевые. Подробнее классификацию облаков см. в Атласе облаков (PDF).
  • T - Температура воздуха - температура, измеренная на высоте 2 м над землей.
  • Td - Температура точки росы - температура, при понижении до которой содержащийся в воздухе водяной пар достигнет насыщения.
  • f - Относительная влажность воздуха - влажноcть воздуха, измеренная на высоте 2 м над землей.
  • Te - Эффективная температура - температура, которую ощущает одетый по сезону человек в тени. Характеристика душности погоды. При расчете учитывается влияние влажности воздуха и скорости ветра на теплоощущения человека.
  • Tes - Эффективная температура на солнце - температура, которую ощущает человек, с поправкой на солнечный нагрев. Характеристика знойности погоды. Зависит от высоты солнца над горизонтом, облачности и скорости ветра. Ночью, в пасмурную погоду, а также при ветре 12 м/с и более поправка равна нулю.
  • P - Атмосферное давление - приведенное к уровню моря атмосферное давление.
  • Po - Атмосферное давление - измеренное на уровне метеостанции атмосферное давление.
  • Tmin - Минимальная температура - минимум температуры воздуха на высоте 2 м над землей.
  • Tmax - Максимальная температура - максимум температуры воздуха на высоте 2 м над землей.
  • R - Количество осадков - Количество выпавших осадков за период времени, мм. При наведении курсора мыши на число - период времени, за который выпало указанное количество осадков.
  • R24 - Количество осадков - Количество выпавших осадков за 24 часа, мм.
  • S - Снежный покров - Высота снежного покрова, см. При наведении курсора мыши на число - состояние снежного покрова и степень покрытия местности в баллах.